Flag for Norway Weather past 2 weeks in Lillehammer, Norway

Now
60 °F

Refreshingly cool.


Feels Like: 59 °F
Forecast: 32 / 62 °F
Wind: 6 mph from Northwest

Location: Lillehammer-Saetherengen

Current Time: Apr 19, 2015 at 3:20:53 PM

Latest Report: Apr 19, 2015 at 2:00 PM


Visibility: N/A

Pressure: 30.28 "Hg

Humidity: 32%

Dew point: 30 °F

Location of LillehammerLocation

Historic Weather in Lillehammer — Graph

°F

Lillehammer temperature yesterday

Maximum temperature yesterday: 52 °F (at 2:00 PM)
Minimum temperature yesterday: 32 °F (at 4:00 AM)
Average temperature yesterday: 41 °F

Past Weeks' High & Low Weather Summary

 TemperatureHumidityPressure
High60 °F (Apr 19, 2:00 PM)96% (Apr 6, 7:00 AM)30.39 "Hg (Apr 6, 7:00 AM)
Low23 °F (Apr 5, 7:00 AM)20% (Apr 8, 3:00 PM)29.38 "Hg (Apr 15, 4:00 PM)
Average41 °F57%29.98 "Hg
* Reported Apr 4 2:00 PM — Apr 19 2:00 PM, Lillehammer, Weather by CustomWeather, © 2015

Note: Actual official high and low records may vary slightly from our data, if they occured in-between our weather recording intervals... More about our weather records

Advertising

Lillehammer weather history for previous 24 hours

 ConditionsComfort  
Time TempWeatherWind HumidityBarometerVisibility
2:00 PM
Sun, Apr 19
60 °FRefreshingly cool.6 mph32%30.28 "HgN/A
1:00 PM58 °FRefreshingly cool.7 mph34%30.29 "HgN/A
12:00 PM55 °FRefreshingly cool.8 mph37%30.31 "HgN/A
11:00 AM51 °FCool.6 mph42%30.33 "HgN/A
10:00 AM47 °FCool.6 mph48%30.34 "HgN/A
9:00 AM42 °FQuite cool.3 mph59%30.36 "HgN/A
8:00 AM40 °FQuite cool.3 mph64%30.37 "HgN/A
7:00 AM38 °FChilly.2 mph69%30.36 "HgN/A
6:00 AM38 °FChilly.1 mph68%30.36 "HgN/A
4:00 AM39 °FChilly.3 mph67%30.35 "HgN/A
3:00 AM40 °FChilly.2 mph66%30.34 "HgN/A
2:00 AM39 °FChilly.2 mph69%30.34 "HgN/A
1:00 AM41 °FQuite cool.2 mph68%30.32 "HgN/A
12:00 AM41 °FQuite cool.2 mph68%30.32 "HgN/A
11:00 PM
Sat, Apr 18
41 °FQuite cool.3 mph75%30.30 "HgN/A
10:00 PM41 °FQuite cool.1 mph72%30.28 "HgN/A
9:00 PM44 °FQuite cool.5 mph65%30.26 "HgN/A
8:00 PM46 °FCool.3 mph53%30.24 "HgN/A
7:00 PM47 °FCool.5 mph48%30.22 "HgN/A
6:00 PM49 °FCool.5 mph44%30.21 "HgN/A
5:00 PM50 °FCool.6 mph38%30.20 "HgN/A
4:00 PM52 °FCool.5 mph35%30.19 "HgN/A
3:00 PM51 °FCool.8 mph35%30.22 "HgN/A
Weather by CustomWeather, © 2015

See weather overviewHow to use our weather pages